Previsão horária em Sennicy

Hoje, 26 Novembro, Quinta-feira

Tempo Temperatura Precipitação Vento Pressão Humidade
00:00 +5°C° 0.2 mm 3 m/s 755 mmHg 95%
01:00 +7°C° 0.2 mm 3 m/s 755 mmHg 94%
02:00 +7°C° 0.2 mm 3 m/s 755 mmHg 93%
03:00 +7°C° 0 mm 3 m/s 755 mmHg 91%
04:00 +7°C° 0 mm 3 m/s 754 mmHg 89%
05:00 +7°C° 0 mm 3 m/s 754 mmHg 87%
06:00 +7°C° 0 mm 3 m/s 754 mmHg 86%
07:00 +5°C° 0 mm 3 m/s 754 mmHg 85%
08:00 +5°C° 0 mm 4 m/s 754 mmHg 84%
09:00 +5°C° 0 mm 4 m/s 754 mmHg 84%
10:00 +5°C° 0 mm 4 m/s 753 mmHg 83%
11:00 +5°C° 0 mm 4 m/s 753 mmHg 82%
12:00 +5°C° 0 mm 4 m/s 753 mmHg 83%
13:00 +5°C° 0 mm 4 m/s 752 mmHg 83%
14:00 +5°C° 0 mm 4 m/s 752 mmHg 83%
15:00 +5°C° 0 mm 4 m/s 752 mmHg 84%
16:00 +5°C° 0 mm 4 m/s 751 mmHg 85%
17:00 +4°C° 0 mm 4 m/s 751 mmHg 85%
18:00 +4°C° 0.2 mm 4 m/s 751 mmHg 86%
19:00 +3°C° 0.2 mm 5 m/s 750 mmHg 86%
20:00 +3°C° 0.2 mm 5 m/s 750 mmHg 87%
21:00 +3°C° 0.4 mm 5 m/s 750 mmHg 88%
22:00 +4°C° 0.4 mm 4 m/s 750 mmHg 89%
23:00 +4°C° 0.4 mm 4 m/s 749 mmHg 89%

Amanhã, 27 Novembro, Sexta-feira

Tempo Temperatura Precipitação Vento Pressão Humidade
00:00 +4°C° 0.3 mm 4 m/s 749 mmHg 90%
01:00 +4°C° 0.3 mm 3 m/s 749 mmHg 90%
02:00 +4°C° 0.3 mm 3 m/s 749 mmHg 90%
03:00 +4°C° 0.1 mm 3 m/s 749 mmHg 91%
04:00 +3°C° 0.1 mm 3 m/s 749 mmHg 91%
05:00 +3°C° 0.1 mm 3 m/s 749 mmHg 91%
06:00 +2°C° 0 mm 3 m/s 749 mmHg 87%
07:00 +1°C° 0 mm 4 m/s 749 mmHg 82%
08:00 0°C° 0 mm 4 m/s 750 mmHg 78%
09:00 0°C° 0 mm 4 m/s 750 mmHg 81%
10:00 0°C° 0 mm 4 m/s 750 mmHg 85%
11:00 0°C° 0 mm 4 m/s 751 mmHg 89%
12:00 0°C° 0.2 mm 4 m/s 751 mmHg 91%
13:00 -1°C° 0.2 mm 4 m/s 751 mmHg 92%
14:00 -1°C° 0.2 mm 4 m/s 752 mmHg 94%
15:00 -1°C° 0.3 mm 4 m/s 752 mmHg 93%
16:00 0°C° 0.3 mm 3 m/s 752 mmHg 91%
17:00 0°C° 0.3 mm 3 m/s 753 mmHg 90%
18:00 -1°C° 0.1 mm 3 m/s 753 mmHg 90%
19:00 -1°C° 0.1 mm 3 m/s 754 mmHg 90%
20:00 -1°C° 0.1 mm 3 m/s 754 mmHg 90%
21:00 -1°C° 0 mm 3 m/s 754 mmHg 90%
22:00 -1°C° 0 mm 3 m/s 755 mmHg 90%
23:00 -1°C° 0 mm 2 m/s 755 mmHg 89%

Depois de amanhã, 28 Novembro, Sábado

Tempo Temperatura Precipitação Vento Pressão Humidade
00:00 -1°C° 0 mm 3 m/s 756 mmHg 91%
01:00 0°C° 0 mm 3 m/s 756 mmHg 93%
02:00 0°C° 0 mm 3 m/s 757 mmHg 95%
03:00 0°C° 0 mm 3 m/s 757 mmHg 94%
04:00 0°C° 0 mm 3 m/s 757 mmHg 92%
05:00 +1°C° 0 mm 3 m/s 758 mmHg 91%
06:00 0°C° 0.1 mm 3 m/s 758 mmHg 93%
07:00 0°C° 0.1 mm 3 m/s 759 mmHg 95%
08:00 0°C° 0.1 mm 3 m/s 759 mmHg 97%
09:00 +1°C° 0.1 mm 3 m/s 760 mmHg 95%
10:00 +1°C° 0.1 mm 3 m/s 760 mmHg 93%
11:00 +1°C° 0.1 mm 3 m/s 760 mmHg 91%
12:00 +1°C° 0 mm 3 m/s 761 mmHg 89%
13:00 +1°C° 0 mm 3 m/s 761 mmHg 87%
14:00 +1°C° 0 mm 3 m/s 761 mmHg 86%
15:00 0°C° 0 mm 3 m/s 762 mmHg 86%
16:00 0°C° 0 mm 3 m/s 762 mmHg 86%
17:00 0°C° 0 mm 3 m/s 762 mmHg 86%
18:00 -1°C° 0 mm 3 m/s 763 mmHg 87%
19:00 -1°C° 0 mm 3 m/s 763 mmHg 87%
20:00 -1°C° 0 mm 3 m/s 763 mmHg 88%
21:00 -1°C° 0 mm 3 m/s 764 mmHg 88%
22:00 -1°C° 0 mm 3 m/s 764 mmHg 88%
23:00 -1°C° 0 mm 3 m/s 764 mmHg 89%

29 Novembro, Domingo

Tempo Temperatura Precipitação Vento Pressão Humidade
00:00 -1°C° 0 mm 3 m/s 764 mmHg 89%
01:00 -1°C° 0 mm 2 m/s 764 mmHg 89%
02:00 -1°C° 0 mm 2 m/s 764 mmHg 90%
03:00 -1°C° 0 mm 2 m/s 765 mmHg 90%
04:00 -2°C° 0 mm 3 m/s 765 mmHg 91%
05:00 -2°C° 0 mm 3 m/s 765 mmHg 92%
06:00 -2°C° 0 mm 3 m/s 765 mmHg 92%
07:00 -2°C° 0 mm 3 m/s 765 mmHg 91%
08:00 -2°C° 0 mm 3 m/s 765 mmHg 91%
09:00 -2°C° 0 mm 3 m/s 765 mmHg 90%
10:00 -2°C° 0 mm 3 m/s 766 mmHg 88%
11:00 -2°C° 0 mm 3 m/s 766 mmHg 86%
12:00 -2°C° 0 mm 2 m/s 766 mmHg 86%
13:00 -1°C° 0 mm 2 m/s 766 mmHg 85%
14:00 -1°C° 0 mm 2 m/s 765 mmHg 84%
15:00 -1°C° 0 mm 2 m/s 765 mmHg 85%
16:00 -1°C° 0 mm 3 m/s 765 mmHg 86%
17:00 -1°C° 0 mm 3 m/s 765 mmHg 86%
18:00 -1°C° 0 mm 3 m/s 765 mmHg 85%
19:00 -1°C° 0 mm 3 m/s 765 mmHg 84%
20:00 -1°C° 0 mm 3 m/s 765 mmHg 82%
21:00 -1°C° 0 mm 2 m/s 765 mmHg 84%
22:00 -2°C° 0 mm 2 m/s 764 mmHg 86%
23:00 -2°C° 0 mm 2 m/s 764 mmHg 88%

30 Novembro, Segunda-feira

Tempo Temperatura Precipitação Vento Pressão Humidade
00:00 -2°C° 0 mm 2 m/s 764 mmHg 90%
01:00 -2°C° 0 mm 3 m/s 763 mmHg 91%
02:00 -2°C° 0 mm 3 m/s 763 mmHg 92%
03:00 -2°C° 0.1 mm 3 m/s 762 mmHg 93%
04:00 -1°C° 0.1 mm 3 m/s 762 mmHg 94%
05:00 -1°C° 0.1 mm 2 m/s 762 mmHg 95%
06:00 -1°C° 0 mm 2 m/s 761 mmHg 95%
07:00 -1°C° 0 mm 2 m/s 761 mmHg 95%
08:00 -1°C° 0 mm 2 m/s 761 mmHg 95%
09:00 -1°C° 0.1 mm 2 m/s 761 mmHg 96%
10:00 +1°C° 0.1 mm 2 m/s 760 mmHg 96%
11:00 +1°C° 0.1 mm 2 m/s 760 mmHg 96%
12:00 +1°C° 0.1 mm 2 m/s 760 mmHg 96%
13:00 +1°C° 0.1 mm 2 m/s 759 mmHg 96%
14:00 0°C° 0.1 mm 3 m/s 759 mmHg 96%
15:00 0°C° 0.1 mm 3 m/s 759 mmHg 97%
16:00 -1°C° 0.1 mm 3 m/s 759 mmHg 97%
17:00 -1°C° 0.1 mm 3 m/s 759 mmHg 97%
18:00 -1°C° 0.2 mm 3 m/s 759 mmHg 96%
19:00 -1°C° 0.2 mm 3 m/s 759 mmHg 96%
20:00 -1°C° 0.2 mm 3 m/s 760 mmHg 95%
21:00 -2°C° 0 mm 3 m/s 760 mmHg 94%
22:00 -4°C° 0 mm 3 m/s 760 mmHg 93%
23:00 -4°C° 0 mm 3 m/s 760 mmHg 92%

1 Dezembro, Terça-feira

Tempo Temperatura Precipitação Vento Pressão Humidade
00:00 -4°C° 0 mm 3 m/s 760 mmHg 91%
01:00 -4°C° 0 mm 3 m/s 760 mmHg 91%
02:00 -2°C° 0 mm 3 m/s 760 mmHg 90%
03:00 -3°C° 0 mm 4 m/s 760 mmHg 90%
04:00 -3°C° 0 mm 4 m/s 760 mmHg 90%
05:00 -3°C° 0 mm 4 m/s 760 mmHg 90%
06:00 -3°C° 0 mm 4 m/s 760 mmHg 89%
07:00 -2°C° 0 mm 5 m/s 760 mmHg 88%
08:00 -1°C° 0 mm 5 m/s 760 mmHg 87%
09:00 -1°C° 0 mm 5 m/s 760 mmHg 86%
10:00 -1°C° 0 mm 5 m/s 759 mmHg 85%
11:00 0°C° 0 mm 5 m/s 759 mmHg 83%
12:00 -1°C° 0.1 mm 6 m/s 759 mmHg 87%
13:00 -1°C° 0.1 mm 6 m/s 758 mmHg 90%
14:00 -1°C° 0.1 mm 6 m/s 758 mmHg 94%
15:00 -1°C° 0.2 mm 6 m/s 758 mmHg 93%
16:00 -1°C° 0.2 mm 6 m/s 757 mmHg 92%
17:00 +1°C° 0.2 mm 6 m/s 757 mmHg 91%
18:00 +1°C° 0.3 mm 6 m/s 757 mmHg 91%
19:00 +1°C° 0.3 mm 6 m/s 757 mmHg 91%
20:00 +1°C° 0.3 mm 6 m/s 757 mmHg 91%
21:00 +2°C° 0.5 mm 6 m/s 757 mmHg 92%
22:00 +2°C° 0.5 mm 5 m/s 757 mmHg 92%
23:00 +2°C° 0.5 mm 5 m/s 757 mmHg 93%
Mostrar mais

Necessitamos do seu Consentimento

A Meteoprog e os seus Fornecedores de Serviços podem armazenar e aceder a dados pessoais como cookies, identificadores do dispositivo ou outras tecnologias semelhantes existentes no seu dispositivo e processar estes dados para personalizar conteúdos e anúncios, assim como funcionalidades nas redes sociais e análise de tráfego.

  • Armazenar e/ou aceder a informações no seu dispositivo

    Os cookies, identificadores do dispositivo ou outras informações podem ser armazenados ou acedidos no seu dispositivo, para os fins acima indicados.

  • Anúncios e conteúdos personalizados, medição de anúncios e conteúdos, dados sobre o público-alvo e desenvolvimento de produtos

    Os anúncios e os conteúdos podem ser personalizados com base num perfil. Podem ser adicionados dados adicionais para uma maior personalização dos anúncios e dos conteúdos. A eficácia dos anúncios e dos conteúdos pode ser medida. Podem ser obtidas informações sobre o público que visualizou os anúncios e os conteúdos. Estes dados podem ser usados para desenvolver ou melhorar sistemas, softwares ou a experiência do utilizador.

Ao clicar em "Eu concordo”, permitirá o uso de cookies, identificadores do dispositivo e web beacons mencionados ou outras tecnologias semelhantes. As configurações do navegador do seu dispositivo podem ser alteradas.

Para certos fins, podem ser invocados interesses legítimos ao invés de consentimento. Pode ler mais informação sobre este assunto na nossa Política de Privacidade e Cookies.